Jackson, MI

6:17 AM EST on November 22, 2019 (GMT -0500)
Jackson County-Reynolds

Weather History for KJXN - August, 2019

Change the Weather History Date:

Thursday, August 8, 2019

  Actual Average Record
Temperature  
Mean Temperature 69 °F 70 °F  
Max Temperature 81 °F 81 °F 95 °F (2001)
Min Temperature 56 °F 60 °F 43 °F (1989)
Degree Days  
Heating Degree Days 0 1  
Month to date heating degree days 0 4  
Since 1 June heating degree days 58 70  
Since 1 July heating degree days 0 15  
Cooling Degree Days 4 6  
Month to date cooling degree days 43 48  
Year to date cooling degree days 448 413  
Since 1 June cooling degree days 438 376  
Growing Degree Days 22 (Base 50)    
Moisture  
Dew Point 61 °F    
Average Humidity 71    
Maximum Humidity 100    
Minimum Humidity 42    
Precipitation  
Precipitation 0.11 in 0.12 in 1.53 in (1991)
Month to date precipitation 0.21 0.93  
Year to date precipitation 20.40 18.38  
Sea Level Pressure  
Sea Level Pressure 29.79 in    
Wind  
Wind Speed 9 mph (WSW)    
Max Wind Speed 18 mph    
Max Gust Speed 29 mph    
Visibility 10 miles    
Events Rain    
T = Trace of Precipitation, MM = Missing Value Source: NWS Daily Summary

Daily Weather History Graph

Daily Weather History Graph

Search for Another Location

Airport or City:

Astronomy

Aug. 08, 2019 Rise Set
Actual Time 6:37 AM EDT 8:48 PM EDT
Civil Twilight 6:06 AM EDT 9:19 PM EDT
Nautical Twilight 5:28 AM EDT 9:57 PM EDT
Astronomical Twilight 4:46 AM EDT 10:39 PM EDT
Moon 3:23 PM EDT (8/8) 1:00 AM EDT (8/8)
Length of Visible Light 15h 12m
Length of Day
14h 11m
First Quarter, 60% of the Moon is Illuminated
Aug 8
First Quarter
Aug 15
Full
Aug 23
Last Quarter
Aug 30
New
Sep 5
First Quarter

Hourly Weather History & Observations

Time (EDT) Temp. Heat Index Dew Point Humidity Pressure Visibility Wind Dir Wind Speed Gust Speed Precip Events Conditions
12:56 AM 64.9 °F - 61.0 °F 87% 29.79 in 10.0 mi SSW 4.6 mph - N/A   Scattered Clouds
1:56 AM 64.9 °F - 60.1 °F 84% 29.78 in 10.0 mi SW 4.6 mph - N/A   Scattered Clouds
2:56 AM 69.1 °F - 60.1 °F 73% 29.75 in 10.0 mi SSW 9.2 mph - N/A   Scattered Clouds
3:32 AM 70.0 °F - 62.1 °F 76% 29.78 in 10.0 mi West 10.4 mph - 0.00 in Rain Light Rain
3:56 AM 66.9 °F - 63.0 °F 87% 29.77 in 2.5 mi WSW 8.1 mph - 0.08 in Rain Heavy Rain
4:12 AM 66.0 °F - 64.0 °F 93% 29.77 in 8.0 mi South 6.9 mph - 0.02 in Rain Light Rain
4:56 AM 66.0 °F - 64.0 °F 93% 29.74 in 10.0 mi South 10.4 mph - 0.03 in   Scattered Clouds
5:56 AM 64.0 °F - 63.0 °F 96% 29.74 in 10.0 mi SW 8.1 mph - N/A   Partly Cloudy
6:56 AM 63.0 °F - 62.1 °F 97% 29.75 in 10.0 mi North - - N/A   Clear
7:07 AM 63.0 °F - 62.1 °F 97% 29.77 in 10.0 mi WSW 8.1 mph - N/A   Partly Cloudy
7:21 AM 64.0 °F - 63.0 °F 96% 29.77 in 10.0 mi WSW 5.8 mph - N/A   Mostly Cloudy
7:44 AM 64.0 °F - 63.0 °F 96% 29.77 in 10.0 mi SW 8.1 mph - N/A   Overcast
7:56 AM 64.9 °F - 63.0 °F 93% 29.75 in 10.0 mi SW 8.1 mph - N/A   Overcast
8:08 AM 64.9 °F - 64.0 °F 97% 29.77 in 10.0 mi SW 6.9 mph - N/A   Overcast
8:56 AM 66.0 °F - 64.0 °F 93% 29.78 in 10.0 mi WSW 10.4 mph - N/A   Overcast
9:03 AM 66.0 °F - 64.0 °F 93% 29.79 in 10.0 mi WSW 9.2 mph - N/A   Overcast
9:56 AM 69.1 °F - 64.9 °F 87% 29.79 in 10.0 mi WSW 9.2 mph 19.6 mph N/A   Overcast
10:56 AM 73.0 °F - 66.0 °F 79% 29.79 in 10.0 mi North - - N/A   Mostly Cloudy
11:25 AM 75.0 °F - 66.9 °F 76% 29.81 in 10.0 mi WSW 9.2 mph - N/A   Scattered Clouds
11:56 AM 75.0 °F - 62.1 °F 64% 29.80 in 10.0 mi West 13.8 mph 21.9 mph N/A   Partly Cloudy
12:56 PM 78.1 °F - 61.0 °F 56% 29.80 in 10.0 mi West 9.2 mph 26.5 mph N/A   Partly Cloudy
1:56 PM 78.1 °F - 59.0 °F 52% 29.80 in 10.0 mi West 10.4 mph 23.0 mph N/A   Scattered Clouds
2:56 PM 81.0 °F 80.8 °F 55.9 °F 42% 29.80 in 10.0 mi West 15.0 mph 24.2 mph N/A   Partly Cloudy
3:56 PM 79.0 °F - 55.9 °F 45% 29.80 in 10.0 mi West 11.5 mph 25.3 mph N/A   Partly Cloudy
4:56 PM 80.1 °F 80.2 °F 55.9 °F 43% 29.80 in 10.0 mi West 11.5 mph 25.3 mph N/A   Partly Cloudy
5:56 PM 79.0 °F - 57.0 °F 47% 29.80 in 10.0 mi West 11.5 mph 19.6 mph N/A   Partly Cloudy
6:56 PM 77.0 °F - 55.9 °F 48% 29.80 in 10.0 mi West 9.2 mph 20.7 mph N/A   Clear
7:56 PM 75.0 °F - 54.0 °F 48% 29.81 in 10.0 mi West 11.5 mph 18.4 mph N/A   Clear
8:56 PM 69.1 °F - 55.0 °F 61% 29.83 in 10.0 mi West 4.6 mph - N/A   Clear
9:56 PM 68.0 °F - 55.0 °F 63% 29.84 in 10.0 mi WNW 3.5 mph - N/A   Clear
10:56 PM 64.9 °F - 55.0 °F 70% 29.86 in 10.0 mi WNW 3.5 mph - N/A   Clear
11:56 PM 59.0 °F - 55.9 °F 90% 29.87 in 10.0 mi Calm Calm - N/A   Clear